KINEIS-4C

Last updated on Mon Sep 07 2026 00:02:54 GMT+0000 (Coordinated Universal Time)

1 63301U 25056B 26249.61149882 .00000861 00000+0 14381-3 0 9997 2 63301 97.9180 11.5725 0004791 72.6413 287.5319 14.72313608 79112
UTC large
Height (km)
Speed (km/s)
/
Latitude / Longitude
Inclination (degrees)
Orbital Period (minutes)
Azimuth
Elevation
Range (km)
Doppler Factor

Next 0 passes for location: London (51.5072 / 0.1276)

No passes found over London.
KINEIS-4C